User: anonymous   Login
Location: Unspecified
(0.0000°N, 0.0000°E)
Time: 14:41:52
(UTC+00:00)
Language:

OPTUS 1C - Orbit

View from above orbital plane
View from above orbital plane
View from above satellite
View from above satellite

Ground track
Ground track

The orbit data is extracted from the following two-line orbital elements,

1 27831U 03028B   17022.62439145 -.00000147  00000-0  00000+0 0  9992
2 27831   0.0429 192.2525 0002667 105.8485 204.8062  1.00271283 49904
Epoch (UTC): 22 January 2017 14:59:07
Eccentricity: 0.0002667
inclination: 0.0429°
perigee height: 35775 km
apogee height: 35797 km
right ascension of ascending node: 192.2525°
argument of perigee: 105.8485°
revolutions per day: 1.00271283
mean anomaly at epoch: 204.8062°
orbit number at epoch: 4990

The dashed part of the orbit path shows where the satellite is in the earth's shadow,  

DLR